Starlink 11583

operational
NORAD ID: 62991 Int'l Des: 2025-031 Owner: SPXS Country: US Constellation: starlink
LEOCIRCULAR

About Starlink 11583

Description loading...

Live Position

Loading 3D Globe...

Upcoming Passes

Altitude History

Altitude vs Time

uPlot chart will show altitude changes over time

Two-Line Element Set

1 62991U 25031L 25258.22610310 .00340451 00000-0 25329-2 0 9995
2 62991 42.9986 339.3533 0001142 238.2080 121.8676 15.70995234 35157
Epoch: Sep 15, 2025 • Age: 14 hours

Current Status

Altitude 355.9 km
Velocity 7.70 km/s
Sub-Earth Point 30.77°N, 174.4°W
Launch Date Feb 11, 2025
Age 0.5 years
Type internet

Technical Details

Classification Payload
Mass 960.00 kg
Dry Mass 910.00 kg
Total Mass 960.00 kg
Length 0.30 m
Diameter 4.10 m
Span 29.00 m
Shape Box + pan
Manufacturer SPXS
Bus Type Starlink V2MD
Phase Status In Orbit
Owner/State SPXS/US

Large Constellations

Loading constellations...